FENGYUN 1C DEB, 30246

Orbit data source: Space-Track

FENGYUN 1C DEB, 30246 is space debris in SSO originally from a launch on Mon, 10 May 1999 UTC launched from the Taiyaun Space Center, China (TSC). Fengyun 1C debris stems from the Chinese weather satellite Fengyun-1C, which was intentionally destroyed by a Chinese anti-satellite missile in 2007. This event dramatically increased the amount of space debris, with thousands of trackable fragments posing hazards to satellites and human spaceflight. The Fengyun 1C debris cloud has become a focal point in discussions about space sustainability and the need for international regulations to prevent the creation of new debris.

Loading next visibility...
Identifier
30246, 1999-025XF
Orbit
SSO
Country
Flag of CNCN / PRC
Related business
Manufacturer
Unknown
Mission
Spacecraft
Bus & Motor
Unknown
Mass
Unknown
Launch date (UTC)
1999-05-10 (27 years ago)
Launch vehicle
Unknown
Launch site
Taiyaun Space Center, China (TSC)
Object type
Payload
Rocket body
Debris
Shape & HBR
Unknown shape, 0.1 m
Radar Cross Section
Medium (>0.1 m² and <1 m²)

Expand to show TLE details & history
Last TLE update: 1 day ago

TLE from 1 day ago
0 FENGYUN 1C DEB
1 30246U 99025XF  26150.32643132  .00000073  00000-0  13883-3 0  9994
2 30246  98.6971 274.6001 0370104  36.3926 350.5191 13.37114133943930
Epoch: 2026-05-30T07:50Z
TLE epoch observation values (Epoch: 2026-05-30T07:50:03.666Z)
Latitude
25.89105°
Longitude
-94.99458°
Altitude
849.62 km
Speed
7.564 km/s
True Right ascension
18h 01m 27s
True Declination
25° 45' 29"
Sunlit
Object was in full shadow at epoch
Visualization orbit readout
Latitude
Unknown
Longitude
Unknown
Altitude
Unknown
Speed
Unknown
Apparent Right ascension
Unknown
Apparent Declination
Unknown
Sunlit
N/A
Visualization observer readout
Local Sidereal Time
18:56:55
Azimuth
Unknown
Elevation
Unknown
Doppler factor
Unknown
Orbital elements
Apogee altitude
1,394.723 km
Perigee altitude
839.903 km
Semi-major axis
7,495.45 km
Eccentricity
0.03701
Inclination
98.6971°
RAAN
274.6001°
Arg. of periapsis
36.3926°
True anomaly
349.7872°
Mean anomaly
350.5191°
Eccentric anomaly
350.15658°
Mean motion
3.34462 °/min
Orbital period
107.64 mins
BSTAR
0.00013883
Loading maneuver chart data...
Computing Atmospheric mass density...
Loading historical data...
Loading historical data...
Loading historical data...
Loading historical data...
Loading historical data...
Loading historical data...
Loading historical data...

Documentation

Showing up to 5 results
|